Location: Helion Bumpstead
(52.0500°N, 0.4000°E)
Time: 21:49:56
(UTC+00:00)

Cosmos 2333 Rocket - Pass Details

Date: 15 November 2025
Orbit: 837 x 865 km, 70.8° (Epoch: 06 December)

Event Time Altitude Azimuth Distance (km) Brightness Sun altitude
Exits shadow 05:41:29 - 328° (NNW) 2,557 4.3 -14.8°
Reaches altitude 10° 05:41:49 10° 331° (NNW) 2,511 4.3 -14.7°
Maximum altitude 05:44:01 12° 353° (N) 2,365 4.3 -14.4°
Drops below altitude 10° 05:46:13 10° 16° (NNE) 2,517 4.7 -14.0°
Sets 05:50:33 0° 47° (NE) 3,457 5.9 -13.4°
